Time,TemperatureF,DewpointF,PressureIn,WindDirection,WindDirectionDegrees,WindSpeedMPH,WindSpeedGustMPH,Humidity,HourlyPrecipIn,Conditions,Clouds,dailyrainin,SoftwareType,DateUTC
2013-05-20 00:01:00,77.4,68.0,29.75,SW,231,13.0,15.0,73,0.00,,,0.00,meteohub,2013-05-20 05:01:00,
2013-05-20 00:06:00,77.2,68.2,29.75,WSW,244,6.0,14.0,74,0.00,,,0.00,meteohub,2013-05-20 05:06:00,
2013-05-20 00:11:00,77.0,67.6,29.74,SW,225,0.0,14.0,73,0.00,,,0.00,meteohub,2013-05-20 05:11:00,
2013-05-20 00:16:00,76.8,67.5,29.74,SW,217,6.0,14.0,73,0.00,,,0.00,meteohub,2013-05-20 05:16:00,
2013-05-20 00:21:00,76.8,67.5,29.74,SSW,195,5.0,11.0,73,0.00,,,0.00,meteohub,2013-05-20 05:21:00,
2013-05-20 00:26:00,76.6,67.3,29.74,SSW,197,0.0,11.0,73,0.00,,,0.00,meteohub,2013-05-20 05:26:00,
2013-05-20 00:31:00,76.5,67.1,29.74,SSW,209,9.0,11.0,73,0.00,,,0.00,meteohub,2013-05-20 05:31:00,
2013-05-20 00:36:00,76.5,66.7,29.74,SW,214,9.0,10.0,72,0.00,,,0.00,meteohub,2013-05-20 05:36:00,
2013-05-20 00:41:00,76.3,67.5,29.73,SW,220,7.0,18.0,74,0.00,,,0.00,meteohub,2013-05-20 05:41:00,
2013-05-20 00:46:00,76.1,66.7,29.73,South,182,9.0,18.0,73,0.00,,,0.00,meteohub,2013-05-20 05:46:00,
2013-05-20 00:51:00,76.5,66.7,29.73,WSW,249,6.0,18.0,72,0.00,,,0.00,meteohub,2013-05-20 05:51:00,
2013-05-20 00:56:00,76.5,67.1,29.73,South,186,9.0,12.0,73,0.00,,,0.00,meteohub,2013-05-20 05:56:00,
2013-05-20 01:01:00,76.3,66.9,29.73,WSW,249,6.0,12.0,73,0.00,,,0.00,meteohub,2013-05-20 06:01:00,
2013-05-20 01:06:00,76.3,66.6,29.73,SSW,212,0.0,12.0,72,0.00,,,0.00,meteohub,2013-05-20 06:06:00,
2013-05-20 01:11:00,76.1,66.4,29.73,South,185,0.0,10.0,72,0.00,,,0.00,meteohub,2013-05-20 06:11:00,
2013-05-20 01:17:00,75.9,66.6,29.73,SSW,209,0.0,10.0,73,0.00,,,0.00,meteohub,2013-05-20 06:17:00,
2013-05-20 01:22:00,75.9,66.2,29.73,SSW,206,10.0,10.0,72,0.00,,,0.00,meteohub,2013-05-20 06:22:00,
2013-05-20 01:27:00,75.9,66.6,29.73,SSW,208,0.0,12.0,73,0.00,,,0.00,meteohub,2013-05-20 06:27:00,
2013-05-20 01:32:00,75.7,66.4,29.73,SSW,207,0.0,12.0,73,0.00,,,0.00,meteohub,2013-05-20 06:32:00,
2013-05-20 01:37:00,75.9,66.6,29.72,SW,216,8.0,12.0,73,0.00,,,0.00,meteohub,2013-05-20 06:37:00,
2013-05-20 01:42:00,75.9,66.6,29.72,SW,217,0.0,12.0,73,0.00,,,0.00,meteohub,2013-05-20 06:42:00,
2013-05-20 01:47:00,75.7,66.9,29.71,SSW,208,0.0,10.0,74,0.00,,,0.00,meteohub,2013-05-20 06:47:00,
2013-05-20 01:52:00,75.6,66.7,29.71,SW,218,5.0,10.0,74,0.00,,,0.00,meteohub,2013-05-20 06:52:00,
2013-05-20 01:57:00,75.4,66.9,29.70,SSW,213,0.0,9.0,75,0.00,,,0.00,meteohub,2013-05-20 06:57:00,
2013-05-20 02:02:00,74.8,66.7,29.70,SSW,213,0.0,9.0,76,0.00,,,0.00,meteohub,2013-05-20 07:02:00,
2013-05-20 02:07:00,74.7,66.6,29.69,SSW,213,0.0,9.0,76,0.00,,,0.00,meteohub,2013-05-20 07:07:00,
2013-05-20 02:12:00,74.7,66.6,29.69,SW,215,0.0,8.0,76,0.00,,,0.00,meteohub,2013-05-20 07:12:00,
2013-05-20 02:17:00,74.7,66.6,29.69,SSW,207,0.0,8.0,76,0.00,,,0.00,meteohub,2013-05-20 07:17:00,
2013-05-20 02:22:00,74.5,66.4,29.70,SSW,207,6.0,10.0,76,0.00,,,0.00,meteohub,2013-05-20 07:22:00,
2013-05-20 02:27:00,74.5,66.4,29.70,SW,218,0.0,10.0,76,0.00,,,0.00,meteohub,2013-05-20 07:27:00,
2013-05-20 02:32:00,74.7,66.6,29.70,SW,220,5.0,11.0,76,0.00,,,0.00,meteohub,2013-05-20 07:32:00,
2013-05-20 02:37:00,74.5,66.7,29.72,SSW,212,0.0,11.0,77,0.00,,,0.00,meteohub,2013-05-20 07:37:00,
2013-05-20 02:42:00,74.5,66.4,29.72,SSW,213,5.0,11.0,76,0.00,,,0.00,meteohub,2013-05-20 07:42:00,
2013-05-20 02:47:00,74.5,66.7,29.72,SW,218,0.0,11.0,77,0.00,,,0.00,meteohub,2013-05-20 07:47:00,
2013-05-20 02:52:00,74.3,66.6,29.72,SSW,207,6.0,11.0,77,0.00,,,0.00,meteohub,2013-05-20 07:52:00,
2013-05-20 02:57:00,74.1,66.4,29.72,SW,218,0.0,10.0,77,0.00,,,0.00,meteohub,2013-05-20 07:57:00,
2013-05-20 03:02:00,73.9,66.6,29.72,SW,217,5.0,10.0,78,0.00,,,0.00,meteohub,2013-05-20 08:02:00,
2013-05-20 03:07:00,73.9,66.6,29.72,SW,217,0.0,10.0,78,0.00,,,0.00,meteohub,2013-05-20 08:07:00,
2013-05-20 03:12:00,73.8,66.4,29.72,SSW,206,0.0,9.0,78,0.00,,,0.00,meteohub,2013-05-20 08:12:00,
2013-05-20 03:17:00,73.8,66.9,29.72,SW,220,5.0,9.0,79,0.00,,,0.00,meteohub,2013-05-20 08:17:00,
2013-05-20 03:22:00,73.8,66.9,29.72,SSW,206,0.0,9.0,79,0.00,,,0.00,meteohub,2013-05-20 08:22:00,
2013-05-20 03:27:00,73.9,67.1,29.72,SW,230,0.0,9.0,79,0.00,,,0.00,meteohub,2013-05-20 08:27:00,
2013-05-20 03:32:00,73.9,67.1,29.73,SSW,210,0.0,9.0,79,0.00,,,0.00,meteohub,2013-05-20 08:32:00,
2013-05-20 03:37:00,73.8,67.3,29.75,WNW,284,8.0,11.0,80,0.00,,,0.00,meteohub,2013-05-20 08:37:00,
2013-05-20 03:42:00,73.6,65.8,29.75,SW,220,6.0,16.0,77,0.00,,,0.00,meteohub,2013-05-20 08:42:00,
2013-05-20 03:47:00,72.7,65.5,29.75,West,270,5.0,16.0,78,0.00,,,0.00,meteohub,2013-05-20 08:47:00,
2013-05-20 03:52:00,71.4,64.6,29.76,NW,315,0.0,16.0,79,0.00,,,0.00,meteohub,2013-05-20 08:52:00,
2013-05-20 03:57:00,70.7,63.9,29.76,NW,315,0.0,9.0,79,0.00,,,0.00,meteohub,2013-05-20 08:57:00,
2013-05-20 04:02:00,70.2,63.7,29.75,NW,315,0.0,8.0,80,0.00,,,0.00,meteohub,2013-05-20 09:02:00,
2013-05-20 04:07:00,69.6,63.5,29.75,NW,315,0.0,8.0,81,0.00,,,0.00,meteohub,2013-05-20 09:07:00,
2013-05-20 04:12:00,69.3,63.9,29.75,NW,315,0.0,5.0,83,0.00,,,0.00,meteohub,2013-05-20 09:12:00,
2013-05-20 04:17:00,68.7,63.3,29.75,NW,315,0.0,0.0,83,0.00,,,0.00,meteohub,2013-05-20 09:17:00,
2013-05-20 04:22:00,68.5,63.1,29.75,NW,315,0.0,0.0,83,0.00,,,0.00,meteohub,2013-05-20 09:22:00,
2013-05-20 04:27:00,68.2,63.1,29.75,NW,315,0.0,0.0,84,0.00,,,0.00,meteohub,2013-05-20 09:27:00,
2013-05-20 04:32:00,68.0,63.3,29.76,WSW,246,6.0,0.0,85,0.00,,,0.00,meteohub,2013-05-20 09:32:00,
2013-05-20 04:37:00,67.8,63.1,29.75,SSW,211,0.0,6.0,85,0.00,,,0.00,meteohub,2013-05-20 09:37:00,
2013-05-20 04:42:00,67.8,63.5,29.75,SSW,211,0.0,6.0,86,0.00,,,0.00,meteohub,2013-05-20 09:42:00,
2013-05-20 04:47:00,67.6,63.3,29.77,SSW,211,0.0,6.0,86,0.00,,,0.00,meteohub,2013-05-20 09:47:00,
2013-05-20 04:52:00,67.5,62.4,29.80,SSW,210,7.0,7.0,84,0.00,,,0.00,meteohub,2013-05-20 09:52:00,
2013-05-20 04:57:00,67.5,62.4,29.80,WSW,237,5.0,11.0,84,0.00,,,0.00,meteohub,2013-05-20 09:57:00,
2013-05-20 05:02:00,66.6,63.0,29.80,WSW,247,5.0,11.0,88,0.02,,,0.02,meteohub,2013-05-20 10:02:00,
2013-05-20 05:07:00,65.5,62.4,29.81,WSW,247,0.0,11.0,90,0.03,,,0.03,meteohub,2013-05-20 10:07:00,
2013-05-20 05:12:00,65.1,62.4,29.81,WSW,248,0.0,6.0,91,0.03,,,0.03,meteohub,2013-05-20 10:12:00,
2013-05-20 05:17:00,64.9,62.6,29.81,WNW,291,0.0,8.0,92,0.03,,,0.03,meteohub,2013-05-20 10:17:00,
2013-05-20 05:22:00,64.8,62.6,29.82,West,259,5.0,10.0,93,0.03,,,0.03,meteohub,2013-05-20 10:22:00,
2013-05-20 05:27:00,64.6,62.2,29.81,SW,232,5.0,10.0,92,0.03,,,0.03,meteohub,2013-05-20 10:27:00,
2013-05-20 05:32:00,64.2,62.2,29.82,SW,220,0.0,10.0,93,0.03,,,0.03,meteohub,2013-05-20 10:32:00,
2013-05-20 05:37:00,64.0,62.1,29.82,SW,232,0.0,10.0,93,0.03,,,0.03,meteohub,2013-05-20 10:37:00,
2013-05-20 05:42:00,63.9,61.9,29.82,SW,232,0.0,10.0,93,0.03,,,0.03,meteohub,2013-05-20 10:42:00,
2013-05-20 05:47:00,63.7,61.7,29.82,SW,232,0.0,5.0,93,0.03,,,0.03,meteohub,2013-05-20 10:47:00,
2013-05-20 05:52:00,63.3,61.3,29.82,SW,232,5.0,5.0,93,0.03,,,0.03,meteohub,2013-05-20 10:52:00,
2013-05-20 05:57:00,63.3,61.3,29.81,SW,232,0.0,5.0,93,0.03,,,0.03,meteohub,2013-05-20 10:57:00,
2013-05-20 06:02:00,63.1,61.2,29.81,SW,232,0.0,5.0,93,0.01,,,0.03,meteohub,2013-05-20 11:02:00,
2013-05-20 06:07:00,63.1,61.3,29.83,SW,232,0.0,5.0,94,0.00,,,0.03,meteohub,2013-05-20 11:07:00,
2013-05-20 06:12:00,63.3,61.3,29.82,SSW,209,6.0,9.0,93,0.00,,,0.03,meteohub,2013-05-20 11:12:00,
2013-05-20 06:17:00,63.7,61.7,29.82,SSW,194,0.0,9.0,93,0.00,,,0.03,meteohub,2013-05-20 11:17:00,
2013-05-20 06:22:00,63.7,61.7,29.83,SSW,194,0.0,9.0,93,0.00,,,0.03,meteohub,2013-05-20 11:22:00,
2013-05-20 06:27:00,63.5,61.5,29.80,SSW,194,0.0,8.0,93,0.00,,,0.03,meteohub,2013-05-20 11:27:00,
2013-05-20 06:32:00,63.3,61.3,29.78,SSW,194,0.0,6.0,93,0.00,,,0.03,meteohub,2013-05-20 11:32:00,
2013-05-20 06:37:00,63.1,61.2,29.77,SSW,194,0.0,5.0,93,0.00,,,0.03,meteohub,2013-05-20 11:37:00,
2013-05-20 06:42:00,63.1,61.2,29.77,SSW,194,0.0,5.0,93,0.00,,,0.03,meteohub,2013-05-20 11:42:00,
2013-05-20 06:47:00,63.1,61.2,29.76,SSW,194,0.0,0.0,93,0.00,,,0.03,meteohub,2013-05-20 11:47:00,
2013-05-20 06:52:00,63.1,61.2,29.75,SSW,194,0.0,0.0,93,0.00,,,0.03,meteohub,2013-05-20 11:52:00,
2013-05-20 06:57:00,63.3,61.3,29.75,SSW,194,0.0,0.0,93,0.00,,,0.03,meteohub,2013-05-20 11:57:00,
2013-05-20 07:02:00,63.3,61.3,29.74,SSW,194,0.0,0.0,93,0.00,,,0.03,meteohub,2013-05-20 12:02:00,
2013-05-20 07:07:00,63.3,61.5,29.74,SSW,194,0.0,0.0,94,0.00,,,0.03,meteohub,2013-05-20 12:07:00,
2013-05-20 07:12:00,63.3,61.5,29.75,SSW,194,0.0,0.0,94,0.00,,,0.03,meteohub,2013-05-20 12:12:00,
2013-05-20 07:17:00,63.7,61.9,29.75,SSW,194,0.0,0.0,94,0.00,,,0.03,meteohub,2013-05-20 12:17:00,
2013-05-20 07:22:00,63.7,61.9,29.74,SSW,194,0.0,0.0,94,0.00,,,0.03,meteohub,2013-05-20 12:22:00,
2013-05-20 07:27:00,63.7,61.9,29.74,SSW,194,0.0,0.0,94,0.00,,,0.03,meteohub,2013-05-20 12:27:00,
2013-05-20 07:32:00,63.9,62.1,29.75,SSW,194,0.0,5.0,94,0.00,,,0.03,meteohub,2013-05-20 12:32:00,
2013-05-20 07:37:00,64.0,62.2,29.74,SSW,194,0.0,5.0,94,0.00,,,0.03,meteohub,2013-05-20 12:37:00,
2013-05-20 07:42:00,63.9,61.9,29.74,SSW,195,0.0,5.0,93,0.00,,,0.03,meteohub,2013-05-20 12:42:00,
2013-05-20 07:47:00,64.0,62.1,29.73,SSW,195,0.0,6.0,93,0.01,,,0.04,meteohub,2013-05-20 12:47:00,
2013-05-20 07:52:00,64.0,62.1,29.73,SSW,195,0.0,6.0,93,0.01,,,0.04,meteohub,2013-05-20 12:52:00,
2013-05-20 07:57:00,64.2,61.5,29.74,SSW,195,0.0,6.0,91,0.01,,,0.04,meteohub,2013-05-20 12:57:00,
2013-05-20 08:02:00,64.6,61.9,29.73,SW,225,0.0,6.0,91,0.01,,,0.04,meteohub,2013-05-20 13:02:00,
2013-05-20 08:07:00,64.9,61.9,29.74,SW,214,5.0,6.0,90,0.01,,,0.04,meteohub,2013-05-20 13:07:00,
2013-05-20 08:12:00,65.3,62.2,29.75,WSW,253,8.0,9.0,90,0.01,,,0.04,meteohub,2013-05-20 13:12:00,
2013-05-20 08:17:00,65.8,61.9,29.77,SSW,204,7.0,11.0,87,0.01,,,0.04,meteohub,2013-05-20 13:17:00,
2013-05-20 08:22:00,66.4,62.4,29.77,SSW,213,5.0,11.0,87,0.01,,,0.04,meteohub,2013-05-20 13:22:00,
2013-05-20 08:27:00,66.7,62.4,29.78,SW,216,6.0,11.0,86,0.01,,,0.04,meteohub,2013-05-20 13:27:00,
2013-05-20 08:32:00,67.5,62.4,29.78,SW,224,9.0,16.0,84,0.01,,,0.04,meteohub,2013-05-20 13:32:00,
2013-05-20 08:37:00,67.6,61.9,29.78,SW,232,5.0,16.0,82,0.01,,,0.04,meteohub,2013-05-20 13:37:00,
2013-05-20 08:42:00,67.6,62.2,29.77,WSW,249,0.0,16.0,83,0.01,,,0.04,meteohub,2013-05-20 13:42:00,
2013-05-20 08:47:00,67.8,61.7,29.74,SW,215,0.0,18.0,81,0.00,,,0.04,meteohub,2013-05-20 13:47:00,
2013-05-20 08:52:00,67.6,61.9,29.75,SSW,211,6.0,18.0,82,0.00,,,0.04,meteohub,2013-05-20 13:52:00,
2013-05-20 08:57:00,67.5,62.1,29.76,SSW,201,6.0,18.0,83,0.00,,,0.04,meteohub,2013-05-20 13:57:00,
2013-05-20 09:02:00,67.5,61.3,29.77,SW,221,8.0,11.0,81,0.00,,,0.04,meteohub,2013-05-20 14:02:00,
2013-05-20 09:07:00,67.5,61.3,29.76,SSW,213,5.0,11.0,81,0.00,,,0.04,meteohub,2013-05-20 14:07:00,
2013-05-20 09:12:00,67.8,61.7,29.75,SW,232,6.0,13.0,81,0.00,,,0.04,meteohub,2013-05-20 14:12:00,
2013-05-20 09:17:00,68.4,62.6,29.73,WNW,285,5.0,13.0,82,0.00,,,0.04,meteohub,2013-05-20 14:17:00,
2013-05-20 09:22:00,68.5,62.1,29.72,South,184,5.0,13.0,80,0.00,,,0.04,meteohub,2013-05-20 14:22:00,
2013-05-20 09:27:00,68.7,62.2,29.73,SW,217,0.0,10.0,80,0.00,,,0.04,meteohub,2013-05-20 14:27:00,
2013-05-20 09:32:00,69.6,62.4,29.74,SW,236,9.0,10.0,78,0.00,,,0.04,meteohub,2013-05-20 14:32:00,
2013-05-20 09:37:00,70.3,62.4,29.74,SSW,198,0.0,17.0,76,0.00,,,0.04,meteohub,2013-05-20 14:37:00,
2013-05-20 09:42:00,71.2,62.6,29.75,WSW,255,6.0,17.0,74,0.00,,,0.04,meteohub,2013-05-20 14:42:00,
2013-05-20 09:47:00,71.8,62.6,29.75,SSW,201,14.0,14.0,73,0.00,,,0.04,meteohub,2013-05-20 14:47:00,
2013-05-20 09:52:00,72.0,62.1,29.75,WSW,246,5.0,17.0,71,0.00,,,0.04,meteohub,2013-05-20 14:52:00,
2013-05-20 09:57:00,72.1,62.6,29.77,SSW,213,6.0,19.0,72,0.00,,,0.04,meteohub,2013-05-20 14:57:00,
2013-05-20 10:02:00,72.0,62.1,29.76,WNW,301,11.0,19.0,71,0.00,,,0.04,meteohub,2013-05-20 15:02:00,
2013-05-20 10:07:00,71.2,61.7,29.75,WSW,256,8.0,24.0,72,0.00,,,0.04,meteohub,2013-05-20 15:07:00,
2013-05-20 10:12:00,71.1,61.9,29.76,SSW,206,5.0,24.0,73,0.00,,,0.04,meteohub,2013-05-20 15:12:00,
2013-05-20 10:17:00,71.6,62.4,29.75,West,265,5.0,24.0,73,0.00,,,0.04,meteohub,2013-05-20 15:17:00,
2013-05-20 10:22:00,71.8,62.2,29.75,SSW,197,9.0,17.0,72,0.00,,,0.04,meteohub,2013-05-20 15:22:00,
2013-05-20 10:27:00,72.7,61.9,29.75,SW,218,10.0,19.0,69,0.00,,,0.04,meteohub,2013-05-20 15:27:00,
2013-05-20 10:32:00,73.2,62.1,29.75,SW,215,14.0,19.0,68,0.00,,,0.04,meteohub,2013-05-20 15:32:00,
2013-05-20 10:37:00,73.9,63.1,29.75,SW,214,0.0,19.0,69,0.00,,,0.04,meteohub,2013-05-20 15:37:00,
2013-05-20 10:42:00,73.9,61.9,29.75,WSW,248,5.0,18.0,66,0.00,,,0.04,meteohub,2013-05-20 15:42:00,
2013-05-20 10:47:00,74.1,61.5,29.75,SSW,192,10.0,18.0,65,0.00,,,0.04,meteohub,2013-05-20 15:47:00,
2013-05-20 10:52:00,74.5,62.8,29.75,WSW,256,0.0,18.0,67,0.00,,,0.04,meteohub,2013-05-20 15:52:00,
2013-05-20 10:57:00,75.0,63.0,29.75,WSW,257,5.0,20.0,66,0.00,,,0.04,meteohub,2013-05-20 15:57:00,
2013-05-20 11:02:00,75.7,62.8,29.75,WNW,288,5.0,20.0,64,0.00,,,0.04,meteohub,2013-05-20 16:02:00,
2013-05-20 11:07:00,76.3,63.1,29.75,WSW,247,0.0,20.0,64,0.00,,,0.04,meteohub,2013-05-20 16:07:00,
2013-05-20 11:12:00,76.8,63.3,29.75,SSW,195,10.0,16.0,63,0.00,,,0.04,meteohub,2013-05-20 16:12:00,
2013-05-20 11:17:00,77.5,63.9,29.75,SSW,212,6.0,16.0,63,0.00,,,0.04,meteohub,2013-05-20 16:17:00,
2013-05-20 11:22:00,78.3,62.8,29.75,West,267,6.0,16.0,59,0.00,,,0.04,meteohub,2013-05-20 16:22:00,
2013-05-20 11:27:00,78.6,62.6,29.75,SSW,208,15.0,15.0,58,0.00,,,0.04,meteohub,2013-05-20 16:27:00,
2013-05-20 11:32:00,79.0,63.5,29.75,SW,215,14.0,15.0,59,0.00,,,0.04,meteohub,2013-05-20 16:32:00,
2013-05-20 11:37:00,79.2,63.1,29.75,WNW,288,8.0,20.0,58,0.00,,,0.04,meteohub,2013-05-20 16:37:00,
2013-05-20 11:42:00,79.5,61.3,29.75,SSW,206,8.0,20.0,54,0.00,,,0.04,meteohub,2013-05-20 16:42:00,
2013-05-20 11:47:00,80.1,63.0,29.75,SW,215,10.0,20.0,56,0.00,,,0.04,meteohub,2013-05-20 16:47:00,
2013-05-20 11:52:00,80.6,60.8,29.75,SW,221,6.0,15.0,51,0.00,,,0.04,meteohub,2013-05-20 16:52:00,
2013-05-20 11:57:00,80.4,62.8,29.75,SW,235,5.0,18.0,55,0.00,,,0.04,meteohub,2013-05-20 16:57:00,
2013-05-20 12:02:00,81.0,61.7,29.75,WNW,290,8.0,18.0,52,0.00,,,0.04,meteohub,2013-05-20 17:02:00,
2013-05-20 12:07:00,81.3,62.1,29.76,South,188,10.0,15.0,52,0.00,,,0.04,meteohub,2013-05-20 17:07:00,
2013-05-20 12:12:00,81.9,61.3,29.76,SW,218,8.0,17.0,50,0.00,,,0.04,meteohub,2013-05-20 17:12:00,
2013-05-20 12:17:00,82.2,60.6,29.76,SW,216,10.0,17.0,48,0.00,,,0.04,meteohub,2013-05-20 17:17:00,
2013-05-20 12:22:00,82.4,61.3,29.75,SW,221,6.0,20.0,49,0.00,,,0.04,meteohub,2013-05-20 17:22:00,
2013-05-20 12:27:00,82.9,61.9,29.75,SSW,192,7.0,20.0,49,0.00,,,0.04,meteohub,2013-05-20 17:27:00,
2013-05-20 12:32:00,83.1,61.3,29.76,SSW,209,9.0,16.0,48,0.00,,,0.04,meteohub,2013-05-20 17:32:00,
2013-05-20 12:37:00,83.1,62.1,29.76,South,191,12.0,16.0,49,0.00,,,0.04,meteohub,2013-05-20 17:37:00,
2013-05-20 12:42:00,83.1,61.3,29.76,WSW,240,5.0,16.0,48,0.00,,,0.04,meteohub,2013-05-20 17:42:00,
2013-05-20 12:47:00,83.5,63.0,29.76,WSW,246,5.0,17.0,50,0.00,,,0.04,meteohub,2013-05-20 17:47:00,
2013-05-20 12:52:00,83.8,61.5,29.76,SW,235,8.0,17.0,47,0.00,,,0.04,meteohub,2013-05-20 17:52:00,
2013-05-20 12:57:00,83.8,64.4,29.76,SW,214,5.0,13.0,52,0.00,,,0.04,meteohub,2013-05-20 17:57:00,
2013-05-20 13:02:00,84.0,61.7,29.76,SSW,207,8.0,11.0,47,0.00,,,0.04,meteohub,2013-05-20 18:02:00,
2013-05-20 13:07:00,84.4,61.3,29.77,SSW,195,5.0,13.0,46,0.00,,,0.04,meteohub,2013-05-20 18:07:00,
2013-05-20 13:12:00,84.2,62.4,29.77,SSW,193,11.0,16.0,48,0.00,,,0.04,meteohub,2013-05-20 18:12:00,
2013-05-20 13:17:00,84.4,61.3,29.77,West,273,8.0,16.0,46,0.00,,,0.04,meteohub,2013-05-20 18:17:00,
2013-05-20 13:22:00,84.6,62.1,29.77,West,271,6.0,16.0,47,0.00,,,0.04,meteohub,2013-05-20 18:22:00,
2013-05-20 13:27:00,84.7,60.4,29.78,SSW,202,10.0,15.0,44,0.00,,,0.04,meteohub,2013-05-20 18:27:00,
2013-05-20 13:32:00,84.9,60.6,29.78,WNW,290,10.0,15.0,44,0.00,,,0.04,meteohub,2013-05-20 18:32:00,
2013-05-20 13:37:00,85.3,61.0,29.78,West,275,8.0,15.0,44,0.00,,,0.04,meteohub,2013-05-20 18:37:00,
2013-05-20 13:42:00,85.3,61.0,29.78,NW,326,6.0,12.0,44,0.00,,,0.04,meteohub,2013-05-20 18:42:00,
2013-05-20 13:47:00,85.6,61.2,29.78,NW,306,9.0,12.0,44,0.00,,,0.04,meteohub,2013-05-20 18:47:00,
2013-05-20 13:52:00,85.5,60.4,29.78,West,265,6.0,13.0,43,0.00,,,0.04,meteohub,2013-05-20 18:52:00,
2013-05-20 13:57:00,85.3,60.3,29.78,SSW,213,10.0,17.0,43,0.00,,,0.04,meteohub,2013-05-20 18:57:00,
2013-05-20 14:02:00,84.9,61.2,29.79,SW,231,5.0,17.0,45,0.00,,,0.04,meteohub,2013-05-20 19:02:00,
2013-05-20 14:07:00,85.1,62.1,29.79,SSW,198,6.0,15.0,46,0.00,,,0.04,meteohub,2013-05-20 19:07:00,
2013-05-20 14:12:00,84.9,61.9,29.80,WNW,282,5.0,16.0,46,0.00,,,0.04,meteohub,2013-05-20 19:12:00,
2013-05-20 14:17:00,83.7,61.9,29.80,SW,226,0.0,16.0,48,0.00,,,0.04,meteohub,2013-05-20 19:17:00,
2013-05-20 14:22:00,82.9,63.0,29.81,SSW,203,8.0,16.0,51,0.00,,,0.04,meteohub,2013-05-20 19:22:00,
2013-05-20 14:27:00,81.7,63.0,29.81,West,261,6.0,14.0,53,0.00,,,0.04,meteohub,2013-05-20 19:27:00,
2013-05-20 14:32:00,80.4,62.8,29.81,SW,228,9.0,20.0,55,0.00,,,0.04,meteohub,2013-05-20 19:32:00,
2013-05-20 14:37:00,80.1,63.5,29.81,WSW,253,13.0,20.0,57,0.00,,,0.04,meteohub,2013-05-20 19:37:00,
2013-05-20 14:42:00,79.3,62.8,29.78,SSW,202,6.0,20.0,57,0.00,,,0.04,meteohub,2013-05-20 19:42:00,
2013-05-20 14:47:00,78.6,63.5,29.78,SW,222,0.0,14.0,60,0.00,,,0.04,meteohub,2013-05-20 19:47:00,
2013-05-20 14:52:00,78.8,63.7,29.78,WSW,248,5.0,14.0,60,0.00,,,0.04,meteohub,2013-05-20 19:52:00,
2013-05-20 14:57:00,79.0,64.4,29.77,SW,218,9.0,15.0,61,0.00,,,0.04,meteohub,2013-05-20 19:57:00,
2013-05-20 15:02:00,79.3,64.8,29.77,WSW,257,0.0,17.0,61,0.00,,,0.04,meteohub,2013-05-20 20:02:00,
2013-05-20 15:07:00,80.4,65.7,29.77,SW,224,9.0,17.0,61,0.00,,,0.04,meteohub,2013-05-20 20:07:00,
2013-05-20 15:12:00,80.8,64.6,29.77,SSW,195,0.0,17.0,58,0.00,,,0.04,meteohub,2013-05-20 20:12:00,
2013-05-20 15:17:00,81.1,65.5,29.77,WSW,257,5.0,12.0,59,0.00,,,0.04,meteohub,2013-05-20 20:17:00,
2013-05-20 15:22:00,80.6,64.9,29.76,West,267,6.0,12.0,59,0.00,,,0.04,meteohub,2013-05-20 20:22:00,
2013-05-20 15:27:00,80.2,63.7,29.76,West,260,6.0,22.0,57,0.00,,,0.04,meteohub,2013-05-20 20:27:00,
2013-05-20 15:32:00,80.2,62.6,29.76,SSW,210,12.0,22.0,55,0.00,,,0.04,meteohub,2013-05-20 20:32:00,
2013-05-20 15:37:00,80.2,61.0,29.76,South,175,11.0,22.0,52,0.00,,,0.04,meteohub,2013-05-20 20:37:00,
2013-05-20 15:42:00,80.6,61.9,29.75,SSW,213,0.0,14.0,53,0.00,,,0.04,meteohub,2013-05-20 20:42:00,
2013-05-20 15:47:00,80.8,64.0,29.75,WSW,248,6.0,14.0,57,0.00,,,0.04,meteohub,2013-05-20 20:47:00,
2013-05-20 15:52:00,81.0,63.9,29.75,SSW,194,10.0,14.0,56,0.00,,,0.04,meteohub,2013-05-20 20:52:00,
2013-05-20 15:57:00,81.5,63.9,29.74,SSW,197,5.0,14.0,55,0.00,,,0.04,meteohub,2013-05-20 20:57:00,
2013-05-20 16:02:00,81.7,65.5,29.74,SW,218,0.0,13.0,58,0.00,,,0.04,meteohub,2013-05-20 21:02:00,
2013-05-20 16:07:00,81.7,64.9,29.74,West,274,0.0,14.0,57,0.00,,,0.04,meteohub,2013-05-20 21:07:00,
2013-05-20 16:12:00,81.9,64.0,29.74,SSW,194,5.0,14.0,55,0.00,,,0.04,meteohub,2013-05-20 21:12:00,
2013-05-20 16:17:00,82.2,63.9,29.73,SSW,201,5.0,14.0,54,0.00,,,0.04,meteohub,2013-05-20 21:17:00,
2013-05-20 16:22:00,82.6,65.3,29.73,SSW,202,5.0,13.0,56,0.00,,,0.04,meteohub,2013-05-20 21:22:00,
2013-05-20 16:27:00,82.8,63.9,29.73,WNW,294,5.0,13.0,53,0.00,,,0.04,meteohub,2013-05-20 21:27:00,
2013-05-20 16:32:00,82.8,64.9,29.73,SSW,195,6.0,13.0,55,0.00,,,0.04,meteohub,2013-05-20 21:32:00,
2013-05-20 16:37:00,82.8,66.0,29.73,SW,226,12.0,15.0,57,0.00,,,0.04,meteohub,2013-05-20 21:37:00,
2013-05-20 16:42:00,83.1,63.1,29.72,SSW,208,8.0,16.0,51,0.00,,,0.04,meteohub,2013-05-20 21:42:00,
2013-05-20 16:47:00,83.1,63.7,29.73,South,183,11.0,16.0,52,0.00,,,0.04,meteohub,2013-05-20 21:47:00,
2013-05-20 16:52:00,83.1,62.6,29.72,SSW,199,9.0,17.0,50,0.00,,,0.04,meteohub,2013-05-20 21:52:00,
2013-05-20 16:57:00,83.1,63.1,29.72,South,186,0.0,17.0,51,0.00,,,0.04,meteohub,2013-05-20 21:57:00,
2013-05-20 17:02:00,82.9,61.2,29.72,SW,221,7.0,17.0,48,0.00,,,0.04,meteohub,2013-05-20 22:02:00,
2013-05-20 17:07:00,83.1,61.3,29.72,SSW,197,0.0,14.0,48,0.00,,,0.04,meteohub,2013-05-20 22:07:00,
2013-05-20 17:12:00,83.1,61.3,29.72,SSW,198,9.0,14.0,48,0.00,,,0.04,meteohub,2013-05-20 22:12:00,
2013-05-20 17:17:00,83.1,62.6,29.72,SSW,199,9.0,16.0,50,0.00,,,0.04,meteohub,2013-05-20 22:17:00,
2013-05-20 17:22:00,83.1,64.2,29.72,SSW,199,5.0,16.0,53,0.00,,,0.04,meteohub,2013-05-20 22:22:00,
2013-05-20 17:27:00,82.9,62.4,29.72,SSW,208,6.0,16.0,50,0.00,,,0.04,meteohub,2013-05-20 22:27:00,
2013-05-20 17:32:00,83.1,60.8,29.72,SW,224,5.0,12.0,47,0.00,,,0.04,meteohub,2013-05-20 22:32:00,
2013-05-20 17:37:00,83.3,61.5,29.72,SSW,209,9.0,14.0,48,0.00,,,0.04,meteohub,2013-05-20 22:37:00,
2013-05-20 17:42:00,82.9,64.0,29.72,SSW,209,0.0,14.0,53,0.00,,,0.04,meteohub,2013-05-20 22:42:00,
2013-05-20 17:47:00,82.6,62.1,29.72,SW,222,0.0,12.0,50,0.00,,,0.04,meteohub,2013-05-20 22:47:00,
2013-05-20 17:52:00,82.9,61.2,29.71,SSW,203,0.0,12.0,48,0.00,,,0.04,meteohub,2013-05-20 22:52:00,
2013-05-20 17:57:00,83.1,62.1,29.71,SSW,197,0.0,10.0,49,0.00,,,0.04,meteohub,2013-05-20 22:57:00,
2013-05-20 18:02:00,81.9,65.1,29.71,SW,234,0.0,10.0,57,0.00,,,0.04,meteohub,2013-05-20 23:02:00,
2013-05-20 18:07:00,82.2,63.3,29.71,SSW,200,0.0,10.0,53,0.00,,,0.04,meteohub,2013-05-20 23:07:00,
2013-05-20 18:12:00,82.6,62.6,29.71,SSW,207,0.0,9.0,51,0.00,,,0.04,meteohub,2013-05-20 23:12:00,
2013-05-20 18:17:00,81.9,63.5,29.70,SSW,197,5.0,14.0,54,0.00,,,0.04,meteohub,2013-05-20 23:17:00,
2013-05-20 18:22:00,82.0,62.6,29.70,SSW,207,0.0,14.0,52,0.00,,,0.04,meteohub,2013-05-20 23:22:00,
2013-05-20 18:27:00,81.9,63.5,29.70,South,178,0.0,14.0,54,0.00,,,0.04,meteohub,2013-05-20 23:27:00,
2013-05-20 18:32:00,81.7,64.4,29.70,SW,224,0.0,10.0,56,0.00,,,0.04,meteohub,2013-05-20 23:32:00,
2013-05-20 18:37:00,82.0,65.3,29.70,SSW,195,0.0,10.0,57,0.00,,,0.04,meteohub,2013-05-20 23:37:00,
2013-05-20 18:42:00,81.7,64.9,29.70,South,175,0.0,12.0,57,0.00,,,0.04,meteohub,2013-05-20 23:42:00,
2013-05-20 18:47:00,81.1,66.0,29.69,SSW,203,0.0,12.0,60,0.00,,,0.04,meteohub,2013-05-20 23:47:00,
2013-05-20 18:52:00,81.0,65.8,29.69,SSW,201,5.0,10.0,60,0.00,,,0.04,meteohub,2013-05-20 23:52:00,
2013-05-20 18:57:00,81.0,65.3,29.69,SSW,194,9.0,11.0,59,0.00,,,0.04,meteohub,2013-05-20 23:57:00,
2013-05-20 19:02:00,81.0,65.3,29.69,WSW,241,8.0,11.0,59,0.00,,,0.04,meteohub,2013-05-21 00:02:00,
2013-05-20 19:07:00,80.6,64.9,29.68,SSW,207,0.0,11.0,59,0.00,,,0.04,meteohub,2013-05-21 00:07:00,
2013-05-20 19:12:00,80.4,65.3,29.68,SSW,211,0.0,11.0,60,0.00,,,0.04,meteohub,2013-05-21 00:12:00,
2013-05-20 19:17:00,80.1,65.5,29.68,SSW,213,5.0,11.0,61,0.00,,,0.04,meteohub,2013-05-21 00:17:00,
2013-05-20 19:22:00,80.1,65.8,29.67,South,188,0.0,9.0,62,0.00,,,0.04,meteohub,2013-05-21 00:22:00,
2013-05-20 19:27:00,80.2,66.6,29.68,SSW,204,0.0,11.0,63,0.00,,,0.04,meteohub,2013-05-21 00:27:00,
2013-05-20 19:32:00,80.1,66.7,29.68,SSW,212,0.0,11.0,64,0.00,,,0.04,meteohub,2013-05-21 00:32:00,
2013-05-20 19:37:00,79.7,66.9,29.68,SSW,199,5.0,11.0,65,0.00,,,0.04,meteohub,2013-05-21 00:37:00,
2013-05-20 19:42:00,79.5,67.1,29.68,SSW,195,8.0,10.0,66,0.00,,,0.04,meteohub,2013-05-21 00:42:00,
2013-05-20 19:47:00,79.5,67.1,29.69,SSW,209,0.0,10.0,66,0.00,,,0.04,meteohub,2013-05-21 00:47:00,
2013-05-20 19:52:00,79.3,67.5,29.69,SSW,213,5.0,11.0,67,0.00,,,0.04,meteohub,2013-05-21 00:52:00,
2013-05-20 19:57:00,79.2,67.6,29.69,South,191,6.0,11.0,68,0.00,,,0.04,meteohub,2013-05-21 00:57:00,
2013-05-20 20:02:00,79.0,67.5,29.69,SW,217,0.0,11.0,68,0.00,,,0.04,meteohub,2013-05-21 01:02:00,
2013-05-20 20:07:00,78.8,67.8,29.70,SSW,213,0.0,12.0,69,0.00,,,0.04,meteohub,2013-05-21 01:07:00,
2013-05-20 20:12:00,78.4,67.8,29.70,SW,226,0.0,13.0,70,0.00,,,0.04,meteohub,2013-05-21 01:12:00,
2013-05-20 20:17:00,78.4,67.8,29.69,SSW,204,6.0,13.0,70,0.00,,,0.04,meteohub,2013-05-21 01:17:00,
2013-05-20 20:22:00,78.3,67.6,29.69,SSW,195,0.0,14.0,70,0.00,,,0.04,meteohub,2013-05-21 01:22:00,
2013-05-20 20:27:00,78.1,67.5,29.68,WNW,282,5.0,14.0,70,0.00,,,0.04,meteohub,2013-05-21 01:27:00,
2013-05-20 20:32:00,77.7,68.4,29.69,WSW,247,0.0,13.0,73,0.00,,,0.04,meteohub,2013-05-21 01:32:00,
2013-05-20 20:37:00,75.2,68.9,29.68,SSW,210,9.0,10.0,81,0.00,,,0.04,meteohub,2013-05-21 01:37:00,
2013-05-20 20:42:00,73.0,68.5,29.70,WNW,292,5.0,11.0,86,0.17,,,0.21,meteohub,2013-05-21 01:42:00,
2013-05-20 20:47:00,71.8,68.7,29.68,WNW,292,0.0,11.0,90,0.51,,,0.55,meteohub,2013-05-21 01:47:00,
2013-05-20 20:52:00,71.2,68.7,29.68,WNW,291,5.0,11.0,92,0.53,,,0.57,meteohub,2013-05-21 01:52:00,
2013-05-20 20:57:00,71.1,68.9,29.68,WNW,292,6.0,9.0,93,0.58,,,0.62,meteohub,2013-05-21 01:57:00,
2013-05-20 21:02:00,70.5,68.0,29.68,SSW,205,0.0,16.0,92,0.68,,,0.72,meteohub,2013-05-21 02:02:00,
2013-05-20 21:07:00,70.2,68.0,29.68,South,178,6.0,16.0,93,0.78,,,0.82,meteohub,2013-05-21 02:07:00,
2013-05-20 21:12:00,70.3,68.5,29.68,SSW,213,0.0,16.0,94,0.89,,,0.93,meteohub,2013-05-21 02:12:00,
2013-05-20 21:17:00,70.3,68.5,29.70,SSW,209,11.0,13.0,94,0.89,,,0.93,meteohub,2013-05-21 02:17:00,
2013-05-20 21:22:00,70.5,68.7,29.70,SW,216,9.0,13.0,94,0.90,,,0.94,meteohub,2013-05-21 02:22:00,
2013-05-20 21:27:00,70.7,68.9,29.71,SSW,207,6.0,12.0,94,0.90,,,0.94,meteohub,2013-05-21 02:27:00,
2013-05-20 21:32:00,70.9,69.1,29.73,SW,220,8.0,12.0,94,0.90,,,0.94,meteohub,2013-05-21 02:32:00,
2013-05-20 21:37:00,71.1,69.3,29.74,SSW,205,9.0,17.0,94,0.87,,,0.94,meteohub,2013-05-21 02:37:00,
2013-05-20 21:42:00,71.1,69.3,29.76,WNW,286,10.0,17.0,94,0.63,,,0.95,meteohub,2013-05-21 02:42:00,
2013-05-20 21:47:00,69.6,66.9,29.76,SW,226,9.0,17.0,91,0.41,,,0.96,meteohub,2013-05-21 02:47:00,
2013-05-20 21:52:00,68.4,65.3,29.77,SW,215,12.0,16.0,90,0.39,,,0.97,meteohub,2013-05-21 02:52:00,
2013-05-20 21:57:00,67.5,65.1,29.76,NW,317,7.0,16.0,92,0.35,,,0.98,meteohub,2013-05-21 02:57:00,
2013-05-20 22:02:00,67.3,64.9,29.75,WNW,286,5.0,16.0,92,0.24,,,0.98,meteohub,2013-05-21 03:02:00,
2013-05-20 22:07:00,67.3,65.1,29.76,WSW,242,10.0,16.0,93,0.06,,,0.99,meteohub,2013-05-21 03:07:00,
2013-05-20 22:12:00,66.6,64.4,29.77,WSW,243,7.0,16.0,93,0.08,,,1.01,meteohub,2013-05-21 03:12:00,
2013-05-20 22:17:00,65.7,63.3,29.78,NNW,327,7.0,13.0,92,0.08,,,1.01,meteohub,2013-05-21 03:17:00,
2013-05-20 22:22:00,65.1,63.0,29.78,WNW,294,0.0,13.0,93,0.09,,,1.03,meteohub,2013-05-21 03:22:00,
2013-05-20 22:27:00,64.8,62.6,29.77,WNW,292,0.0,13.0,93,0.11,,,1.05,meteohub,2013-05-21 03:27:00,
2013-05-20 22:32:00,64.2,62.2,29.76,WNW,292,0.0,9.0,93,0.12,,,1.06,meteohub,2013-05-21 03:32:00,
2013-05-20 22:37:00,64.0,62.2,29.75,WNW,290,0.0,9.0,94,0.13,,,1.07,meteohub,2013-05-21 03:37:00,
2013-05-20 22:42:00,64.0,62.2,29.74,WNW,290,0.0,5.0,94,0.13,,,1.08,meteohub,2013-05-21 03:42:00,
2013-05-20 22:47:00,64.0,62.2,29.73,WNW,290,0.0,5.0,94,0.12,,,1.08,meteohub,2013-05-21 03:47:00,
2013-05-20 22:52:00,63.9,62.1,29.74,WNW,290,0.0,5.0,94,0.12,,,1.09,meteohub,2013-05-21 03:52:00,
2013-05-20 22:57:00,63.9,62.4,29.74,WNW,290,0.0,0.0,95,0.11,,,1.09,meteohub,2013-05-21 03:57:00,
2013-05-20 23:01:00,64.0,62.6,29.74,WNW,290,0.0,0.0,95,0.11,,,1.10,meteohub,2013-05-21 04:01:00,
2013-05-20 23:02:00,64.0,62.6,29.74,WNW,290,0.0,0.0,95,0.11,,,1.10,meteohub,2013-05-21 04:02:00,
2013-05-20 23:03:00,64.0,62.6,29.75,SW,229,5.0,0.0,95,0.11,,,1.10,meteohub,2013-05-21 04:03:00,
2013-05-20 23:05:00,64.0,62.6,29.75,SW,229,0.0,0.0,95,0.11,,,1.11,meteohub,2013-05-21 04:05:00,
2013-05-20 23:07:00,64.0,62.6,29.75,SW,229,0.0,6.0,95,0.12,,,1.11,meteohub,2013-05-21 04:07:00,
2013-05-20 23:12:00,64.0,62.6,29.75,SSW,208,0.0,6.0,95,0.11,,,1.12,meteohub,2013-05-21 04:12:00,
2013-05-20 23:17:00,63.9,62.4,29.74,SSW,205,8.0,9.0,95,0.12,,,1.14,meteohub,2013-05-21 04:17:00,
2013-05-20 23:22:00,63.9,62.4,29.74,SSW,204,0.0,9.0,95,0.11,,,1.15,meteohub,2013-05-21 04:22:00,
2013-05-20 23:27:00,63.9,62.4,29.73,SSW,204,0.0,9.0,95,0.11,,,1.16,meteohub,2013-05-21 04:27:00,
2013-05-20 23:32:00,64.0,62.6,29.73,SSW,209,0.0,8.0,95,0.09,,,1.16,meteohub,2013-05-21 04:32:00,
2013-05-20 23:37:00,63.9,62.4,29.73,SSW,209,8.0,9.0,95,0.10,,,1.17,meteohub,2013-05-21 04:37:00,
2013-05-20 23:42:00,63.7,62.2,29.73,WSW,247,0.0,10.0,95,0.10,,,1.18,meteohub,2013-05-21 04:42:00,
2013-05-20 23:47:00,63.7,62.2,29.75,SW,218,0.0,11.0,95,0.11,,,1.19,meteohub,2013-05-21 04:47:00,
2013-05-20 23:52:00,63.7,61.9,29.75,SSW,195,8.0,16.0,94,0.12,,,1.21,meteohub,2013-05-21 04:52:00,
2013-05-20 23:57:00,63.7,62.2,29.75,SSW,213,0.0,16.0,95,0.13,,,1.23,meteohub,2013-05-21 04:57:00,